Weather History for Boscobel, WI

Change the Weather History Date:

Saturday, December 15, 2012

  Actual Average (KPDC) Record (KPDC)
Temperature  
Mean Temperature 41 °F -  
Max Temperature 43 °F 32 °F 50 °F (1979)
Min Temperature 39 °F 16 °F -14 °F (1961)
Degree Days  
Heating Degree Days 24    
Moisture  
Dew Point 41 °F    
Average Humidity 96    
Maximum Humidity 100    
Minimum Humidity 70    
Precipitation  
Precipitation 0.62 in - - ()
Sea Level Pressure  
Sea Level Pressure 29.63 in    
Wind  
Wind Speed 2 mph (East)    
Max Wind Speed 12 mph    
Max Gust Speed 17 mph    
Visibility 3 miles    
Events Fog , Rain    
Averages and records for this station are not official NWS values.
T = Trace of Precipitation, MM = Missing Value Source: NWS Daily Summary

Daily Weather History Graph

Daily Weather History Graph

Search for Another Location

Airport:

Trip Planner

Search our weather history database for the weather conditions in past years. The results will help you decide how hot, cold, wet, or windy it might be!

Date:

Astronomy

Dec. 15, 2012 Rise Set
Actual Time 7:27 AM CST 4:28 PM CST
Civil Twilight 6:55 AM CST 5:00 PM CST
Nautical Twilight 6:19 AM CST 5:36 PM CST
Astronomical Twilight 5:44 AM CST 6:11 PM CST
Moon 9:17 AM CST (12/15) 7:36 PM CST (12/15)
Length of Visible Light 10h 05m
Length of Day
9h 00m
Waxing Crescent, 8% of the Moon is Illuminated
Dec 15
Waxing Crescent
Dec 19
First Quarter
Dec 28
Full
Jan 4
Last Quarter
Jan 11
New

Hourly Weather History & Observations

Time (CST) Temp. Windchill Dew Point Humidity Pressure Visibility Wind Dir Wind Speed Gust Speed Precip Events Conditions
12:53 AM 42.1 °F - 33.1 °F 70% 29.91 in 10.0 mi Calm Calm - N/A   Overcast
1:53 AM 39.9 °F - 37.0 °F 89% 29.88 in 7.0 mi Calm Calm - 0.05 in Rain Light Rain
2:53 AM 39.9 °F - 37.9 °F 93% 29.86 in 6.0 mi Calm Calm - 0.04 in Rain Light Rain
3:35 AM 39.2 °F - 39.2 °F 100% 29.83 in 5.0 mi Calm Calm - 0.01 in Rain Light Rain
3:53 AM 41.0 °F 35.8 °F 37.9 °F 89% 29.83 in 5.0 mi ESE 8.1 mph - 0.02 in Rain Light Rain
4:07 AM 41.0 °F 39.0 °F 39.2 °F 93% 29.81 in 5.0 mi East 3.5 mph - 0.01 in Rain Light Rain
4:19 AM 41.0 °F 38.0 °F 39.2 °F 93% 29.81 in 4.0 mi Variable 4.6 mph - 0.03 in Rain Rain
4:53 AM 41.0 °F 37.1 °F 37.9 °F 89% 29.81 in 5.0 mi Variable 5.8 mph - 0.06 in Rain Light Rain
5:40 AM 39.2 °F 35.9 °F 37.4 °F 93% 29.75 in 8.0 mi East 4.6 mph - 0.06 in Rain Light Rain
5:53 AM 39.9 °F 32.9 °F 37.9 °F 93% 29.76 in 9.0 mi East 11.5 mph 17.3 mph 0.06 in Rain Light Rain
6:53 AM 39.9 °F 36.7 °F 37.9 °F 93% 29.74 in 6.0 mi East 4.6 mph - 0.03 in Rain Light Rain
7:35 AM 39.2 °F 35.9 °F 37.4 °F 93% 29.70 in 4.0 mi East 4.6 mph - 0.07 in Rain Rain
7:53 AM 39.9 °F 36.7 °F 37.9 °F 93% 29.71 in 4.0 mi Variable 4.6 mph - 0.09 in Rain Light Rain
8:36 AM 41.0 °F 37.1 °F 39.2 °F 93% 29.67 in 3.0 mi Variable 5.8 mph - 0.05 in Rain Rain
8:53 AM 41.0 °F 35.8 °F 39.0 °F 93% 29.68 in 5.0 mi ESE 8.1 mph - 0.08 in Rain Light Rain
9:15 AM 41.0 °F 38.0 °F 39.2 °F 93% 29.66 in 2.0 mi Variable 4.6 mph - 0.00 in Rain Light Rain
9:39 AM 41.0 °F - 39.2 °F 93% 29.65 in 4.0 mi Calm Calm - 0.02 in Rain Light Rain
9:53 AM 41.0 °F 38.0 °F 39.9 °F 96% 29.66 in 3.0 mi Variable 4.6 mph - 0.05 in Rain Light Rain
10:53 AM 42.1 °F 38.4 °F 41.0 °F 96% 29.63 in 5.0 mi ESE 5.8 mph - 0.06 in Rain Light Rain
11:13 AM 42.8 °F - 41.0 °F 93% 29.60 in 2.5 mi Calm Calm - 0.04 in Rain Rain
11:29 AM 42.8 °F 40.1 °F 41.0 °F 93% 29.59 in 5.0 mi East 4.6 mph - 0.05 in Rain Light Rain
11:53 AM 43.0 °F - 41.0 °F 93% 29.60 in 4.0 mi Calm Calm - 0.06 in Rain Light Rain
12:13 PM 42.8 °F 41.1 °F 42.8 °F 100% 29.57 in 3.0 mi NE 3.5 mph - 0.01 in Rain Light Rain
12:53 PM 43.0 °F 40.3 °F 42.1 °F 97% 29.56 in 6.0 mi NNE 4.6 mph - 0.02 in   Overcast
1:53 PM 43.0 °F - 42.1 °F 97% 29.54 in 4.0 mi Calm Calm - N/A   Overcast
2:53 PM 43.0 °F - 43.0 °F 100% 29.52 in 3.0 mi Calm Calm - N/A   Overcast
3:18 PM 42.8 °F - 42.8 °F 100% 29.51 in 2.5 mi Calm Calm - N/A   Overcast
3:53 PM 43.0 °F - 42.1 °F 97% 29.53 in 2.0 mi Calm Calm - N/A   Overcast
4:53 PM 42.1 °F - 42.1 °F 100% 29.54 in 2.0 mi Calm Calm - N/A   Overcast
5:00 PM 42.8 °F - 42.8 °F 100% 29.53 in 1.5 mi Calm Calm - N/A   Overcast
5:23 PM 42.8 °F - 42.8 °F 100% 29.53 in 2.5 mi Calm Calm - N/A   Overcast
5:41 PM 42.8 °F - 42.8 °F 100% 29.53 in 2.0 mi Calm Calm - N/A   Overcast
5:53 PM 42.1 °F - 42.1 °F 100% 29.55 in 1.5 mi Calm Calm - N/A   Overcast
6:00 PM 42.8 °F - 41.0 °F 93% 29.53 in 0.8 mi Calm Calm - N/A   Overcast
6:25 PM 42.8 °F - 42.8 °F 100% 29.53 in 1.2 mi Calm Calm - N/A   Overcast
6:53 PM 42.1 °F - 41.0 °F 96% 29.56 in 1.5 mi Calm Calm - N/A   Overcast
7:06 PM 42.8 °F - 42.8 °F 100% 29.55 in 1.0 mi Calm Calm - N/A   Overcast
7:14 PM 42.8 °F - 42.8 °F 100% 29.55 in 1.2 mi Calm Calm - N/A   Overcast
7:24 PM 42.8 °F - 42.8 °F 100% 29.54 in 0.8 mi Calm Calm - N/A   Overcast
7:39 PM 42.8 °F - 41.0 °F 93% 29.54 in 0.5 mi Calm Calm - N/A Fog Fog
7:53 PM 42.1 °F - 42.1 °F 100% 29.56 in 1.0 mi Calm Calm - N/A   Overcast
8:12 PM 42.8 °F - 41.0 °F 93% 29.54 in 0.5 mi Calm Calm - N/A Fog Fog
8:21 PM 42.8 °F - 42.8 °F 100% 29.54 in 0.5 mi Calm Calm - N/A Fog Fog
8:29 PM 42.8 °F - 42.8 °F 100% 29.54 in 0.5 mi Calm Calm - N/A Fog Fog
8:53 PM 41.0 °F - 41.0 °F 100% 29.55 in 0.5 mi Calm Calm - N/A Fog Fog
9:53 PM 42.1 °F - 41.0 °F 96% 29.54 in 0.5 mi Calm Calm - N/A Fog Fog
10:53 PM 41.0 °F - 41.0 °F 100% 29.54 in 0.5 mi Calm Calm - N/A Fog Fog
11:53 PM 41.0 °F - 41.0 °F 100% 29.53 in 0.5 mi Calm Calm - N/A Fog Fog